Simultaneous Nadir Overpasses (SNOs) Predictions

Prediction of SNOs between NOAA-19 and NPP Satellite Orbit:

Table of predicted SNOs for the next 14.0 days since TLE Epoch: 7/14/2012
Index Date (NOAA-19) Time (NOAA-19) NOAA-19 Lat,Lon Date (NPP) Time (NPP) NPP Lat,Lon Distance(km) Time Diff (sec)
1 07/15/2012 16:42:24 -80.70, 61.22 07/15/2012 16:43:37 -80.70, 61.35 2.39 73
2 07/15/2012 17:33:21 80.65,-130.61 07/15/2012 17:34:20 80.65,-130.63 0.38 59
3 07/15/2012 18:24:26 -80.64, 36.80 07/15/2012 18:25:04 -80.63, 36.97 3.14 38
4 07/15/2012 19:15:24 80.61,-155.38 07/15/2012 19:15:48 80.61,-155.36 0.40 24
5 07/15/2012 20:06:26 -80.54, 13.04 07/15/2012 20:06:30 -80.54, 12.90 2.66 4
6 07/15/2012 20:57:26 80.54,-179.82 07/15/2012 20:57:15 80.54,-179.76 1.16 11
7 07/15/2012 21:48:27 -80.45, -11.09 07/15/2012 21:47:56 -80.45, -11.19 1.88 31
8 07/15/2012 22:39:27 80.45, 156.06 07/15/2012 22:38:41 80.45, 156.16 1.94 46
9 07/15/2012 23:30:28 -80.35, -35.25 07/15/2012 23:29:22 -80.35, -35.30 1.09 66
10 07/27/2012 23:03:13 -80.67, -33.29 07/27/2012 23:04:15 -80.67, -33.45 2.98 62
11 07/27/2012 23:54:16 80.67, 133.80 07/27/2012 23:55:00 80.67, 133.88 1.32 44
12 07/28/2012 00:45:15 -80.60, -57.72 07/28/2012 00:45:42 -80.61, -57.84 2.20 27
13 07/28/2012 01:36:17 80.61, 109.38 07/28/2012 01:36:26 80.61, 109.49 2.09 9
14 07/28/2012 02:27:16 -80.54, -82.17 07/28/2012 02:27:08 -80.54, -82.25 1.41 8
15 07/28/2012 03:18:19 80.55, 84.93 07/28/2012 03:17:53 80.54, 85.09 2.87
